Year,Month,Day,Hour,Minute,Value (Times are PST for temperature in C)
2015,06,25,00,00,17.80
2015,06,25,00,01,17.80
2015,06,25,00,02,17.70
2015,06,25,00,03,17.70
2015,06,25,00,04,17.70
2015,06,25,00,05,17.70
2015,06,25,00,06,17.70
2015,06,25,00,07,17.70
2015,06,25,00,08,17.70
2015,06,25,00,09,17.70
2015,06,25,00,10,17.70
2015,06,25,00,11,17.60
2015,06,25,00,12,17.60
2015,06,25,00,13,17.60
2015,06,25,00,14,17.60
2015,06,25,00,15,17.60
2015,06,25,00,16,17.60
2015,06,25,00,17,17.60
2015,06,25,00,18,17.60
2015,06,25,00,19,17.60
2015,06,25,00,20,17.50
2015,06,25,00,21,17.50
2015,06,25,00,22,17.50
2015,06,25,00,23,17.50
2015,06,25,00,24,17.50
2015,06,25,00,25,17.50
2015,06,25,00,26,17.50
2015,06,25,00,27,17.50
2015,06,25,00,28,17.50
2015,06,25,00,29,17.40
2015,06,25,00,30,17.40
2015,06,25,00,31,17.40
2015,06,25,00,32,17.40
2015,06,25,00,33,17.40
2015,06,25,00,34,17.40
2015,06,25,00,35,17.40
2015,06,25,00,36,17.40
2015,06,25,00,37,17.40
2015,06,25,00,38,17.40
2015,06,25,00,39,17.40
2015,06,25,00,40,17.40
2015,06,25,00,41,17.30
2015,06,25,00,42,17.30
2015,06,25,00,43,17.30
2015,06,25,00,44,17.30
2015,06,25,00,45,17.30
2015,06,25,00,46,17.30
2015,06,25,00,47,17.30
2015,06,25,00,48,17.30
2015,06,25,00,49,17.30
2015,06,25,00,50,17.30
2015,06,25,00,51,17.30
2015,06,25,00,52,17.30
2015,06,25,00,53,17.30
2015,06,25,00,54,17.30
2015,06,25,00,55,17.30
2015,06,25,00,56,17.30
2015,06,25,00,57,17.30
2015,06,25,00,58,17.30
2015,06,25,00,59,17.20
2015,06,25,01,00,17.20
2015,06,25,01,01,17.20
2015,06,25,01,02,17.20
2015,06,25,01,03,17.20
2015,06,25,01,04,17.20
2015,06,25,01,05,17.20
2015,06,25,01,06,17.20
2015,06,25,01,07,17.20
2015,06,25,01,08,17.20
2015,06,25,01,09,17.20
2015,06,25,01,10,17.20
2015,06,25,01,11,17.20
2015,06,25,01,12,17.20
2015,06,25,01,13,17.20
2015,06,25,01,14,17.20
2015,06,25,01,15,17.10
2015,06,25,01,16,17.10
2015,06,25,01,17,17.10
2015,06,25,01,18,17.10
2015,06,25,01,19,17.10
2015,06,25,01,20,17.10
2015,06,25,01,21,17.10
2015,06,25,01,22,17.10
2015,06,25,01,23,17.10
2015,06,25,01,24,17.10
2015,06,25,01,25,17.10
2015,06,25,01,26,17.10
2015,06,25,01,27,17.10
2015,06,25,01,28,17.10
2015,06,25,01,29,17.10
2015,06,25,01,30,17.10
2015,06,25,01,31,17.10
2015,06,25,01,32,17.10
2015,06,25,01,33,17.10
2015,06,25,01,34,17.10
2015,06,25,01,35,17.10
2015,06,25,01,36,17.10
2015,06,25,01,37,17.10
2015,06,25,01,38,17.10
2015,06,25,01,39,17.10
2015,06,25,01,40,17.10
2015,06,25,01,41,17.10
2015,06,25,01,42,17.10
2015,06,25,01,43,17.10
2015,06,25,01,44,17.10
2015,06,25,01,45,17.10
2015,06,25,01,46,17.10
2015,06,25,01,47,17.10
2015,06,25,01,48,17.10
2015,06,25,01,49,17.10
2015,06,25,01,50,17.10
2015,06,25,01,51,17.10
2015,06,25,01,52,17.10
2015,06,25,01,53,17.00
2015,06,25,01,54,17.00
2015,06,25,01,55,17.00
2015,06,25,01,56,17.00
2015,06,25,01,57,17.00
2015,06,25,01,58,17.00
2015,06,25,01,59,17.00
2015,06,25,02,00,17.00
2015,06,25,02,01,17.00
2015,06,25,02,02,17.00
2015,06,25,02,03,17.00
2015,06,25,02,04,17.00
2015,06,25,02,05,17.00
2015,06,25,02,06,17.00
2015,06,25,02,07,17.00
2015,06,25,02,08,17.00
2015,06,25,02,09,17.00
2015,06,25,02,10,17.00
2015,06,25,02,11,17.00
2015,06,25,02,12,17.00
2015,06,25,02,13,17.00
2015,06,25,02,14,16.90
2015,06,25,02,15,16.90
2015,06,25,02,16,16.90
2015,06,25,02,17,16.90
2015,06,25,02,18,16.90
2015,06,25,02,19,16.90
2015,06,25,02,20,16.90
2015,06,25,02,21,16.90
2015,06,25,02,22,16.90
2015,06,25,02,23,16.90
2015,06,25,02,24,16.90
2015,06,25,02,25,16.90
2015,06,25,02,26,16.90
2015,06,25,02,27,16.90
2015,06,25,02,28,16.90
2015,06,25,02,29,16.90
2015,06,25,02,30,16.90
2015,06,25,02,31,16.90
2015,06,25,02,32,16.90
2015,06,25,02,33,16.90
2015,06,25,02,34,16.80
2015,06,25,02,35,16.80
2015,06,25,02,36,16.80
2015,06,25,02,37,16.80
2015,06,25,02,38,16.80
2015,06,25,02,39,16.80
2015,06,25,02,40,16.80
2015,06,25,02,41,16.80
2015,06,25,02,42,16.80
2015,06,25,02,43,16.80
2015,06,25,02,44,16.80
2015,06,25,02,45,16.80
2015,06,25,02,46,16.80
2015,06,25,02,47,16.80
2015,06,25,02,48,16.80
2015,06,25,02,49,16.80
2015,06,25,02,50,16.80
2015,06,25,02,51,16.80
2015,06,25,02,52,16.80
2015,06,25,02,53,16.80
2015,06,25,02,54,16.80
2015,06,25,02,55,16.80
2015,06,25,02,56,16.80
2015,06,25,02,57,16.80
2015,06,25,02,58,16.80
2015,06,25,02,59,16.80
2015,06,25,03,00,16.80
2015,06,25,03,01,16.80
2015,06,25,03,02,16.80
2015,06,25,03,03,16.80
2015,06,25,03,04,16.80
2015,06,25,03,05,16.80
2015,06,25,03,06,16.80
2015,06,25,03,07,16.80
2015,06,25,03,08,16.80
2015,06,25,03,09,16.80
2015,06,25,03,10,16.80
2015,06,25,03,11,16.80
2015,06,25,03,12,16.80
2015,06,25,03,13,16.80
2015,06,25,03,14,16.80
2015,06,25,03,15,16.80
2015,06,25,03,16,16.80
2015,06,25,03,17,16.80
2015,06,25,03,18,16.80
2015,06,25,03,19,16.80
2015,06,25,03,20,16.80
2015,06,25,03,21,16.80
2015,06,25,03,22,16.80
2015,06,25,03,23,16.80
2015,06,25,03,24,16.80
2015,06,25,03,25,16.80
2015,06,25,03,26,16.80
2015,06,25,03,27,16.80
2015,06,25,03,28,16.80
2015,06,25,03,29,16.80
2015,06,25,03,30,16.80
2015,06,25,03,31,16.80
2015,06,25,03,32,16.80
2015,06,25,03,33,16.80
2015,06,25,03,34,16.80
2015,06,25,03,35,16.80
2015,06,25,03,36,16.80
2015,06,25,03,37,16.80
2015,06,25,03,38,16.80
2015,06,25,03,39,16.80
2015,06,25,03,40,16.80
2015,06,25,03,41,16.80
2015,06,25,03,42,16.80
2015,06,25,03,43,16.80
2015,06,25,03,44,16.80
2015,06,25,03,45,16.80
2015,06,25,03,46,16.80
2015,06,25,03,47,16.80
2015,06,25,03,48,16.80
2015,06,25,03,49,16.80
2015,06,25,03,50,16.80
2015,06,25,03,51,16.80
2015,06,25,03,52,16.80
2015,06,25,03,53,16.80
2015,06,25,03,54,16.80
2015,06,25,03,55,16.80
2015,06,25,03,56,16.80
2015,06,25,03,57,16.80
2015,06,25,03,58,16.80
2015,06,25,03,59,16.80
2015,06,25,04,00,16.80
2015,06,25,04,01,16.80
2015,06,25,04,02,16.80
2015,06,25,04,03,16.80
2015,06,25,04,04,16.80
2015,06,25,04,05,16.80
2015,06,25,04,06,16.80
2015,06,25,04,07,16.80
2015,06,25,04,08,16.80
2015,06,25,04,09,16.80
2015,06,25,04,10,16.80
2015,06,25,04,11,16.80
2015,06,25,04,12,16.80
2015,06,25,04,13,16.80
2015,06,25,04,14,16.80
2015,06,25,04,15,16.80
2015,06,25,04,16,16.80
2015,06,25,04,17,16.80
2015,06,25,04,18,16.80
2015,06,25,04,19,16.80
2015,06,25,04,20,16.70
2015,06,25,04,21,16.80
2015,06,25,04,22,16.80
2015,06,25,04,23,16.80
2015,06,25,04,24,16.80
2015,06,25,04,25,16.80
2015,06,25,04,26,16.80
2015,06,25,04,27,16.80
2015,06,25,04,28,16.70
2015,06,25,04,29,16.70
2015,06,25,04,30,16.70
2015,06,25,04,31,16.70
2015,06,25,04,32,16.70
2015,06,25,04,33,16.70
2015,06,25,04,34,16.70
2015,06,25,04,35,16.70
2015,06,25,04,36,16.70
2015,06,25,04,37,16.70
2015,06,25,04,38,16.70
2015,06,25,04,39,16.70
2015,06,25,04,40,16.70
2015,06,25,04,41,16.70
2015,06,25,04,42,16.70
2015,06,25,04,43,16.70
2015,06,25,04,44,16.70
2015,06,25,04,45,16.70
2015,06,25,04,46,16.70
2015,06,25,04,47,16.70
2015,06,25,04,48,16.70
2015,06,25,04,49,16.80
2015,06,25,04,50,16.80
2015,06,25,04,51,16.80
2015,06,25,04,52,16.80
2015,06,25,04,53,16.80
2015,06,25,04,54,16.80
2015,06,25,04,55,16.80
2015,06,25,04,56,16.80
2015,06,25,04,57,16.80
2015,06,25,04,58,16.80
2015,06,25,04,59,16.80
2015,06,25,05,00,16.80
2015,06,25,05,01,16.80
2015,06,25,05,02,16.80
2015,06,25,05,03,16.80
2015,06,25,05,04,16.80
2015,06,25,05,05,16.70
2015,06,25,05,06,16.70
2015,06,25,05,07,16.70
2015,06,25,05,08,16.70
2015,06,25,05,09,16.70
2015,06,25,05,10,16.70
2015,06,25,05,11,16.70
2015,06,25,05,12,16.70
2015,06,25,05,13,16.70
2015,06,25,05,14,16.70
2015,06,25,05,15,16.70
2015,06,25,05,16,16.70
2015,06,25,05,17,16.70
2015,06,25,05,18,16.70
2015,06,25,05,19,16.70
2015,06,25,05,20,16.70
2015,06,25,05,21,16.70
2015,06,25,05,22,16.70
2015,06,25,05,23,16.70
2015,06,25,05,24,16.70
2015,06,25,05,25,16.70
2015,06,25,05,26,16.70
2015,06,25,05,27,16.70
2015,06,25,05,28,16.70
2015,06,25,05,29,16.70
2015,06,25,05,30,16.70
2015,06,25,05,31,16.70
2015,06,25,05,32,16.70
2015,06,25,05,33,16.70
2015,06,25,05,34,16.70
2015,06,25,05,35,16.70
2015,06,25,05,36,16.70
2015,06,25,05,37,16.70
2015,06,25,05,38,16.70
2015,06,25,05,39,16.70
2015,06,25,05,40,16.70
2015,06,25,05,41,16.70
2015,06,25,05,42,16.70
2015,06,25,05,43,16.70
2015,06,25,05,44,16.70
2015,06,25,05,45,16.70
2015,06,25,05,46,16.70
2015,06,25,05,47,16.70
2015,06,25,05,48,16.70
2015,06,25,05,49,16.70
2015,06,25,05,50,16.70
2015,06,25,05,51,16.70
2015,06,25,05,52,16.70
2015,06,25,05,53,16.70
2015,06,25,05,54,16.70
2015,06,25,05,55,16.80
2015,06,25,05,56,16.80
2015,06,25,05,57,16.80
2015,06,25,05,58,16.80
2015,06,25,05,59,16.80
2015,06,25,06,00,16.80
2015,06,25,06,01,16.80
2015,06,25,06,02,16.80
2015,06,25,06,03,16.80
2015,06,25,06,04,16.80
2015,06,25,06,05,16.80
2015,06,25,06,06,16.80
2015,06,25,06,07,16.80
2015,06,25,06,08,16.80
2015,06,25,06,09,16.80
2015,06,25,06,10,16.70
2015,06,25,06,11,16.70
2015,06,25,06,12,16.70
2015,06,25,06,13,16.70
2015,06,25,06,14,16.70
2015,06,25,06,15,16.70
2015,06,25,06,16,16.70
2015,06,25,06,17,16.70
2015,06,25,06,18,16.80
2015,06,25,06,19,16.80
2015,06,25,06,20,16.80
2015,06,25,06,21,16.80
2015,06,25,06,22,16.80
2015,06,25,06,23,16.80
2015,06,25,06,24,16.80
2015,06,25,06,25,16.80
2015,06,25,06,26,16.80
2015,06,25,06,27,16.80
2015,06,25,06,28,16.80
2015,06,25,06,29,16.80
2015,06,25,06,30,16.80
2015,06,25,06,31,16.80
2015,06,25,06,32,16.90
2015,06,25,06,33,16.90
2015,06,25,06,34,16.90
2015,06,25,06,35,16.90
2015,06,25,06,36,16.90
2015,06,25,06,37,16.90
2015,06,25,06,38,16.90
2015,06,25,06,39,16.90
2015,06,25,06,40,16.90
2015,06,25,06,41,16.90
2015,06,25,06,42,16.90
2015,06,25,06,43,16.90
2015,06,25,06,44,17.00
2015,06,25,06,45,17.00
2015,06,25,06,46,17.00
2015,06,25,06,47,17.00
2015,06,25,06,48,17.00
2015,06,25,06,49,17.00
2015,06,25,06,50,17.00
2015,06,25,06,51,17.10
2015,06,25,06,52,17.10
2015,06,25,06,53,17.10
2015,06,25,06,54,17.10
2015,06,25,06,55,17.10
2015,06,25,06,56,17.10
2015,06,25,06,57,17.10
2015,06,25,06,58,17.10
2015,06,25,06,59,17.10
2015,06,25,07,00,17.20
2015,06,25,07,01,17.20
2015,06,25,07,02,17.20
2015,06,25,07,03,17.20
2015,06,25,07,04,17.20
2015,06,25,07,05,17.20
2015,06,25,07,06,17.20
2015,06,25,07,07,17.30
2015,06,25,07,08,17.30
2015,06,25,07,09,17.30
2015,06,25,07,10,17.30
2015,06,25,07,11,17.40
2015,06,25,07,12,17.40
2015,06,25,07,13,17.40
2015,06,25,07,14,17.40
2015,06,25,07,15,17.40
2015,06,25,07,16,17.50
2015,06,25,07,17,17.50
2015,06,25,07,18,17.50
2015,06,25,07,19,17.50
2015,06,25,07,20,17.60
2015,06,25,07,21,17.60
2015,06,25,07,22,17.60
2015,06,25,07,23,17.60
2015,06,25,07,24,17.60
2015,06,25,07,25,17.60
2015,06,25,07,26,17.60
2015,06,25,07,27,17.60
2015,06,25,07,28,17.70
2015,06,25,07,29,17.70
2015,06,25,07,30,17.70
2015,06,25,07,31,17.70
2015,06,25,07,32,17.70
2015,06,25,07,33,17.70
2015,06,25,07,34,17.70
2015,06,25,07,35,17.70
2015,06,25,07,36,17.70
2015,06,25,07,37,17.70
2015,06,25,07,38,17.70
2015,06,25,07,39,17.70
2015,06,25,07,40,17.70
2015,06,25,07,41,17.70
2015,06,25,07,42,17.70
2015,06,25,07,43,17.70
2015,06,25,07,44,17.70
2015,06,25,07,45,17.80
2015,06,25,07,46,17.80
2015,06,25,07,47,17.80
2015,06,25,07,48,17.80
2015,06,25,07,49,17.80
2015,06,25,07,50,17.80
2015,06,25,07,51,17.80
2015,06,25,07,52,17.80
2015,06,25,07,53,17.90
2015,06,25,07,54,17.90
2015,06,25,07,55,17.90
2015,06,25,07,56,17.90
2015,06,25,07,57,17.90
2015,06,25,07,58,17.90
2015,06,25,07,59,18.00
2015,06,25,08,00,18.00
2015,06,25,08,01,18.00
2015,06,25,08,02,18.10
2015,06,25,08,03,18.10
2015,06,25,08,04,18.10
2015,06,25,08,05,18.10
2015,06,25,08,06,18.10
2015,06,25,08,07,18.10
2015,06,25,08,08,18.10
2015,06,25,08,09,18.10
2015,06,25,08,10,18.10
2015,06,25,08,11,18.10
2015,06,25,08,12,18.10
2015,06,25,08,13,18.10
2015,06,25,08,14,18.10
2015,06,25,08,15,18.10
2015,06,25,08,16,18.10
2015,06,25,08,17,18.10
2015,06,25,08,18,18.20
2015,06,25,08,19,18.20
2015,06,25,08,20,18.20
2015,06,25,08,21,18.20
2015,06,25,08,22,18.20
2015,06,25,08,23,18.20
2015,06,25,08,24,18.20
2015,06,25,08,25,18.30
2015,06,25,08,26,18.30
2015,06,25,08,27,18.30
2015,06,25,08,28,18.30
2015,06,25,08,29,18.30
2015,06,25,08,30,18.30
2015,06,25,08,31,18.40
2015,06,25,08,32,18.40
2015,06,25,08,33,18.40
2015,06,25,08,34,18.40
2015,06,25,08,35,18.40
2015,06,25,08,36,18.40
2015,06,25,08,37,18.40
2015,06,25,08,38,18.50
2015,06,25,08,39,18.50
2015,06,25,08,40,18.60
2015,06,25,08,41,18.60
2015,06,25,08,42,18.70
2015,06,25,08,43,18.70
2015,06,25,08,44,18.70
2015,06,25,08,45,18.70
2015,06,25,08,46,18.80
2015,06,25,08,47,18.80
2015,06,25,08,48,18.80
2015,06,25,08,49,18.80
2015,06,25,08,50,18.80
2015,06,25,08,51,18.80
2015,06,25,08,52,18.80
2015,06,25,08,53,18.80
2015,06,25,08,54,18.80
2015,06,25,08,55,18.90
2015,06,25,08,56,18.90
2015,06,25,08,57,18.90
2015,06,25,08,58,18.90
2015,06,25,08,59,18.90
2015,06,25,09,00,18.90
2015,06,25,09,01,18.90
2015,06,25,09,02,18.90
2015,06,25,09,03,18.90
2015,06,25,09,04,18.90
2015,06,25,09,05,19.00
2015,06,25,09,06,19.00
2015,06,25,09,07,19.10
2015,06,25,09,08,19.10
2015,06,25,09,09,19.10
2015,06,25,09,10,19.10
2015,06,25,09,11,19.20
2015,06,25,09,12,19.20
2015,06,25,09,13,19.20
2015,06,25,09,14,19.20
2015,06,25,09,15,19.20
2015,06,25,09,16,19.20
2015,06,25,09,17,19.30
2015,06,25,09,18,19.20
2015,06,25,09,19,19.30
2015,06,25,09,20,19.30
2015,06,25,09,21,19.30
2015,06,25,09,22,19.40
2015,06,25,09,23,19.40
2015,06,25,09,24,19.50
2015,06,25,09,25,19.50
2015,06,25,09,26,19.60
2015,06,25,09,27,19.70
2015,06,25,09,28,19.70
2015,06,25,09,29,19.70
2015,06,25,09,30,19.80
2015,06,25,09,31,19.80
2015,06,25,09,32,19.80
2015,06,25,09,33,19.80
2015,06,25,09,34,19.80
2015,06,25,09,35,19.80
2015,06,25,09,36,19.80
2015,06,25,09,37,19.90
2015,06,25,09,38,19.90
2015,06,25,09,39,20.00
2015,06,25,09,40,20.00
2015,06,25,09,41,20.10
2015,06,25,09,42,20.10
2015,06,25,09,43,20.20
2015,06,25,09,44,20.20
2015,06,25,09,45,20.30
2015,06,25,09,46,20.30
2015,06,25,09,47,20.30
2015,06,25,09,48,20.30
2015,06,25,09,49,20.30
2015,06,25,09,50,20.30
2015,06,25,09,51,20.30
2015,06,25,09,52,20.30
2015,06,25,09,53,20.40
2015,06,25,09,54,20.40
2015,06,25,09,55,20.40
2015,06,25,09,56,20.50
2015,06,25,09,57,20.50
2015,06,25,09,58,20.60
2015,06,25,09,59,20.60
2015,06,25,10,00,20.60
2015,06,25,10,01,20.50
2015,06,25,10,02,20.50
2015,06,25,10,03,20.40
2015,06,25,10,04,20.40
2015,06,25,10,05,20.40
2015,06,25,10,06,20.40
2015,06,25,10,07,20.50
2015,06,25,10,08,20.50
2015,06,25,10,09,20.60
2015,06,25,10,10,20.70
2015,06,25,10,11,20.70
2015,06,25,10,12,20.70
2015,06,25,10,13,20.70
2015,06,25,10,14,20.60
2015,06,25,10,15,20.60
2015,06,25,10,16,20.50
2015,06,25,10,17,20.50
2015,06,25,10,18,20.50
2015,06,25,10,19,20.40
2015,06,25,10,20,20.50
2015,06,25,10,21,20.50
2015,06,25,10,22,20.50
2015,06,25,10,23,20.40
2015,06,25,10,24,20.40
2015,06,25,10,25,20.40
2015,06,25,10,26,20.40
2015,06,25,10,27,20.50
2015,06,25,10,28,20.50
2015,06,25,10,29,20.50
2015,06,25,10,30,20.60
2015,06,25,10,31,20.60
2015,06,25,10,32,20.70
2015,06,25,10,33,20.70
2015,06,25,10,34,20.80
2015,06,25,10,35,20.80
2015,06,25,10,36,20.80
2015,06,25,10,37,20.80
2015,06,25,10,38,20.80
2015,06,25,10,39,20.80
2015,06,25,10,40,20.90
2015,06,25,10,41,20.90
2015,06,25,10,42,20.90
2015,06,25,10,43,20.90
2015,06,25,10,44,20.90
2015,06,25,10,45,20.90
2015,06,25,10,46,20.90
2015,06,25,10,47,20.90
2015,06,25,10,48,20.90
2015,06,25,10,49,21.00
2015,06,25,10,50,21.00
2015,06,25,10,51,21.10
2015,06,25,10,52,21.10
2015,06,25,10,53,21.10
2015,06,25,10,54,21.20
2015,06,25,10,55,21.20
2015,06,25,10,56,21.20
2015,06,25,10,57,21.20
2015,06,25,10,58,21.20
2015,06,25,10,59,21.20
2015,06,25,11,00,21.30
2015,06,25,11,01,21.20
2015,06,25,11,02,21.20
2015,06,25,11,03,21.20
2015,06,25,11,04,21.20
2015,06,25,11,05,21.20
2015,06,25,11,06,21.20
2015,06,25,11,07,21.20
2015,06,25,11,08,21.20
2015,06,25,11,09,21.20
2015,06,25,11,10,21.10
2015,06,25,11,11,21.10
2015,06,25,11,12,21.10
2015,06,25,11,13,21.10
2015,06,25,11,14,21.10
2015,06,25,11,15,21.10
2015,06,25,11,16,21.10
2015,06,25,11,17,21.10
2015,06,25,11,18,21.20
2015,06,25,11,19,21.10
2015,06,25,11,20,21.10
2015,06,25,11,21,21.10
2015,06,25,11,22,21.10
2015,06,25,11,23,21.10
2015,06,25,11,24,21.10
2015,06,25,11,25,21.10
2015,06,25,11,26,21.10
2015,06,25,11,27,21.20
2015,06,25,11,28,21.20
2015,06,25,11,29,21.30
2015,06,25,11,30,21.30
2015,06,25,11,31,21.30
2015,06,25,11,32,21.30
2015,06,25,11,33,21.30
2015,06,25,11,34,21.30
2015,06,25,11,35,21.30
2015,06,25,11,36,21.20
2015,06,25,11,37,21.20
2015,06,25,11,38,21.20
2015,06,25,11,39,21.20
2015,06,25,11,40,21.30
2015,06,25,11,41,21.30
2015,06,25,11,42,21.30
2015,06,25,11,43,21.30
2015,06,25,11,44,21.30
2015,06,25,11,45,21.30
2015,06,25,11,46,21.40
2015,06,25,11,47,21.40
2015,06,25,11,48,21.40
2015,06,25,11,49,21.40
2015,06,25,11,50,21.40
2015,06,25,11,51,21.30
2015,06,25,11,52,21.30
2015,06,25,11,53,21.30
2015,06,25,11,54,21.20
2015,06,25,11,55,21.20
2015,06,25,11,56,21.20
2015,06,25,11,57,21.30
2015,06,25,11,58,21.30
2015,06,25,11,59,21.30
2015,06,25,12,00,21.40
2015,06,25,12,01,21.40
2015,06,25,12,02,21.40
2015,06,25,12,03,21.40
2015,06,25,12,04,21.40
2015,06,25,12,05,21.50
2015,06,25,12,06,21.50
2015,06,25,12,07,21.40
2015,06,25,12,08,21.40
2015,06,25,12,09,21.30
2015,06,25,12,10,21.30
2015,06,25,12,11,21.30
2015,06,25,12,12,21.30
2015,06,25,12,13,21.30
2015,06,25,12,14,21.30
2015,06,25,12,15,21.20
2015,06,25,12,16,21.20
2015,06,25,12,17,21.20
2015,06,25,12,18,21.20
2015,06,25,12,19,21.20
2015,06,25,12,20,21.20
2015,06,25,12,21,21.20
2015,06,25,12,22,21.20
2015,06,25,12,23,21.30
2015,06,25,12,24,21.30
2015,06,25,12,25,21.30
2015,06,25,12,26,21.40
2015,06,25,12,27,21.50
2015,06,25,12,28,21.50
2015,06,25,12,29,21.60
2015,06,25,12,30,21.60
2015,06,25,12,31,21.50
2015,06,25,12,32,21.50
2015,06,25,12,33,21.60
2015,06,25,12,34,21.60
2015,06,25,12,35,21.60
2015,06,25,12,36,21.60
2015,06,25,12,37,21.60
2015,06,25,12,38,21.60
2015,06,25,12,39,21.70
2015,06,25,12,40,21.70
2015,06,25,12,41,21.70
2015,06,25,12,42,21.80
2015,06,25,12,43,21.80
2015,06,25,12,44,21.80
2015,06,25,12,45,21.90
2015,06,25,12,46,21.90
2015,06,25,12,47,21.90
2015,06,25,12,48,21.90
2015,06,25,12,49,21.90
2015,06,25,12,50,21.90
2015,06,25,12,51,21.90
2015,06,25,12,52,21.90
2015,06,25,12,53,21.90
2015,06,25,12,54,22.00
2015,06,25,12,55,22.10
2015,06,25,12,56,22.00
2015,06,25,12,57,22.00
2015,06,25,12,58,21.90
2015,06,25,12,59,21.90
2015,06,25,13,00,21.90
2015,06,25,13,01,21.90
2015,06,25,13,02,21.90
2015,06,25,13,03,21.80
2015,06,25,13,04,21.80
2015,06,25,13,05,21.80
2015,06,25,13,06,21.90
2015,06,25,13,07,21.90
2015,06,25,13,08,22.00
2015,06,25,13,09,22.00
2015,06,25,13,10,22.00
2015,06,25,13,11,22.00
2015,06,25,13,12,21.90
2015,06,25,13,13,21.90
2015,06,25,13,14,21.90
2015,06,25,13,15,21.90
2015,06,25,13,16,21.90
2015,06,25,13,17,21.90
2015,06,25,13,18,21.90
2015,06,25,13,19,21.90
2015,06,25,13,20,22.00
2015,06,25,13,21,22.00
2015,06,25,13,22,22.00
2015,06,25,13,23,22.10
2015,06,25,13,24,22.10
2015,06,25,13,25,22.20
2015,06,25,13,26,22.30
2015,06,25,13,27,22.30
2015,06,25,13,28,22.40
2015,06,25,13,29,22.50
2015,06,25,13,30,22.60
2015,06,25,13,31,22.60
2015,06,25,13,32,22.60
2015,06,25,13,33,22.70
2015,06,25,13,34,22.70
2015,06,25,13,35,22.80
2015,06,25,13,36,23.00
2015,06,25,13,37,23.10
2015,06,25,13,38,23.30
2015,06,25,13,39,23.40
2015,06,25,13,40,23.40
2015,06,25,13,41,23.50
2015,06,25,13,42,23.50
2015,06,25,13,43,23.60
2015,06,25,13,44,23.60
2015,06,25,13,45,23.70
2015,06,25,13,46,23.70
2015,06,25,13,47,23.70
2015,06,25,13,48,23.80
2015,06,25,13,49,23.80
2015,06,25,13,50,23.70
2015,06,25,13,51,23.60
2015,06,25,13,52,23.60
2015,06,25,13,53,23.60
2015,06,25,13,54,23.70
2015,06,25,13,55,23.80
2015,06,25,13,56,23.90
2015,06,25,13,57,24.00
2015,06,25,13,58,24.10
2015,06,25,13,59,24.10
2015,06,25,14,00,24.10
2015,06,25,14,01,24.10
2015,06,25,14,02,24.10
2015,06,25,14,03,24.10
2015,06,25,14,04,24.10
2015,06,25,14,05,24.10
2015,06,25,14,06,24.20
2015,06,25,14,07,24.20
2015,06,25,14,08,24.30
2015,06,25,14,09,24.40
2015,06,25,14,10,24.40
2015,06,25,14,11,24.30
2015,06,25,14,12,24.10
2015,06,25,14,13,24.00
2015,06,25,14,14,24.00
2015,06,25,14,15,24.00
2015,06,25,14,16,23.90
2015,06,25,14,17,23.80
2015,06,25,14,18,23.70
2015,06,25,14,19,23.70
2015,06,25,14,20,23.60
2015,06,25,14,21,23.60
2015,06,25,14,22,23.60
2015,06,25,14,23,23.60
2015,06,25,14,24,23.60
2015,06,25,14,25,23.50
2015,06,25,14,26,23.50
2015,06,25,14,27,23.30
2015,06,25,14,28,23.20
2015,06,25,14,29,23.10
2015,06,25,14,30,23.10
2015,06,25,14,31,23.00
2015,06,25,14,32,22.90
2015,06,25,14,33,22.90
2015,06,25,14,34,22.90
2015,06,25,14,35,22.80
2015,06,25,14,36,22.80
2015,06,25,14,37,22.80
2015,06,25,14,38,22.80
2015,06,25,14,39,22.90
2015,06,25,14,40,23.00
2015,06,25,14,41,23.10
2015,06,25,14,42,23.20
2015,06,25,14,43,23.30
2015,06,25,14,44,23.30
2015,06,25,14,45,23.40
2015,06,25,14,46,23.40
2015,06,25,14,47,23.30
2015,06,25,14,48,23.30
2015,06,25,14,49,23.20
2015,06,25,14,50,23.20
2015,06,25,14,51,23.10
2015,06,25,14,52,23.10
2015,06,25,14,53,23.10
2015,06,25,14,54,23.00
2015,06,25,14,55,23.00
2015,06,25,14,56,23.10
2015,06,25,14,57,23.10
2015,06,25,14,58,23.10
2015,06,25,14,59,23.10
2015,06,25,15,00,23.10
2015,06,25,15,01,23.10
2015,06,25,15,02,23.10
2015,06,25,15,03,23.10
2015,06,25,15,04,23.10
2015,06,25,15,05,23.10
2015,06,25,15,06,23.10
2015,06,25,15,07,23.10
2015,06,25,15,08,23.10
2015,06,25,15,09,23.10
2015,06,25,15,10,23.20
2015,06,25,15,11,23.10
2015,06,25,15,12,23.20
2015,06,25,15,13,23.20
2015,06,25,15,14,23.20
2015,06,25,15,15,23.20
2015,06,25,15,16,23.20
2015,06,25,15,17,23.10
2015,06,25,15,18,23.10
2015,06,25,15,19,23.20
2015,06,25,15,20,23.20
2015,06,25,15,21,23.40
2015,06,25,15,22,23.50
2015,06,25,15,23,23.60
2015,06,25,15,24,23.70
2015,06,25,15,25,23.80
2015,06,25,15,26,23.80
2015,06,25,15,27,24.00
2015,06,25,15,28,24.10
2015,06,25,15,29,24.10
2015,06,25,15,30,24.20
2015,06,25,15,31,24.20
2015,06,25,15,32,24.30
2015,06,25,15,33,24.30
2015,06,25,15,34,24.40
2015,06,25,15,35,24.50
2015,06,25,15,36,24.60
2015,06,25,15,37,24.60
2015,06,25,15,38,24.70
2015,06,25,15,39,24.70
2015,06,25,15,40,24.70
2015,06,25,15,41,24.70
2015,06,25,15,42,24.80
2015,06,25,15,43,24.80
2015,06,25,15,44,24.80
2015,06,25,15,45,24.80
2015,06,25,15,46,24.80
2015,06,25,15,47,24.80
2015,06,25,15,48,24.90
2015,06,25,15,49,24.90
2015,06,25,15,50,24.90
2015,06,25,15,51,24.90
2015,06,25,15,52,24.80
2015,06,25,15,53,24.80
2015,06,25,15,54,24.80
2015,06,25,15,55,24.80
2015,06,25,15,56,24.80
2015,06,25,15,57,24.70
2015,06,25,15,58,24.70
2015,06,25,15,59,24.70
2015,06,25,16,00,24.70
2015,06,25,16,01,24.70
2015,06,25,16,02,24.70
2015,06,25,16,03,24.70
2015,06,25,16,04,24.80
2015,06,25,16,05,24.80
2015,06,25,16,06,24.90
2015,06,25,16,07,24.90
2015,06,25,16,08,24.90
2015,06,25,16,09,24.90
2015,06,25,16,10,24.80
2015,06,25,16,11,24.80
2015,06,25,16,12,24.80
2015,06,25,16,13,24.80
2015,06,25,16,14,24.80
2015,06,25,16,15,24.80
2015,06,25,16,16,24.80
2015,06,25,16,17,24.90
2015,06,25,16,18,24.90
2015,06,25,16,19,24.90
2015,06,25,16,20,24.90
2015,06,25,16,21,24.90
2015,06,25,16,22,24.90
2015,06,25,16,23,24.90
2015,06,25,16,24,24.90
2015,06,25,16,25,25.00
2015,06,25,16,26,25.10
2015,06,25,16,27,25.10
2015,06,25,16,28,25.20
2015,06,25,16,29,25.20
2015,06,25,16,30,25.20
2015,06,25,16,31,25.20
2015,06,25,16,32,25.20
2015,06,25,16,33,25.10
2015,06,25,16,34,25.00
2015,06,25,16,35,24.90
2015,06,25,16,36,24.80
2015,06,25,16,37,24.80
2015,06,25,16,38,24.80
2015,06,25,16,39,24.80
2015,06,25,16,40,24.80
2015,06,25,16,41,24.80
2015,06,25,16,42,24.80
2015,06,25,16,43,24.80
2015,06,25,16,44,24.70
2015,06,25,16,45,24.70
2015,06,25,16,46,24.80
2015,06,25,16,47,24.80
2015,06,25,16,48,24.80
2015,06,25,16,49,24.80
2015,06,25,16,50,24.80
2015,06,25,16,51,24.80
2015,06,25,16,52,24.80
2015,06,25,16,53,24.80
2015,06,25,16,54,24.80
2015,06,25,16,55,24.80
2015,06,25,16,56,24.80
2015,06,25,16,57,24.80
2015,06,25,16,58,24.80
2015,06,25,16,59,24.90
2015,06,25,17,00,24.90
2015,06,25,17,01,24.90
2015,06,25,17,02,24.80
2015,06,25,17,03,24.80
2015,06,25,17,04,24.70
2015,06,25,17,05,24.70
2015,06,25,17,06,24.70
2015,06,25,17,07,24.80
2015,06,25,17,08,24.80
2015,06,25,17,09,24.80
2015,06,25,17,10,24.80
2015,06,25,17,11,24.70
2015,06,25,17,12,24.60
2015,06,25,17,13,24.60
2015,06,25,17,14,24.60
2015,06,25,17,15,24.60
2015,06,25,17,16,24.50
2015,06,25,17,17,24.50
2015,06,25,17,18,24.50
2015,06,25,17,19,24.50